Regional Weather Roundup
Issued by NWS

Home | Current Version | Previous Version | Graphics & Text | Print | Product List | Glossary Off
Versions: 1 2 3 4 5 6 7 8 9 10 11 12 13 14 15 16 17 18 19 20 21 22 23 24 25 26 27

000
ASUS45 KBOI 231210
RWRID

IDAHO REGIONAL WEATHER ROUNDUP
NATIONAL WEATHER SERVICE BOISE ID
600 AM MDT SAT SEP 23 2017

NOTE: "FAIR" INDICATES FEW OR NO CLOUDS BELOW 12000 FEET
WITH NO SIGNIFICANT WEATHER AND/OR OBSTRUCTIONS TO VISIBILITY

IDZ012-014-231300-
SOUTHWEST IDAHO


CITY           SKY/WX    TMP DP  RH WIND       PRES   REMARKS
BOISE          CLEAR     38  35  89 S3        30.02S
CALDWELL       CLEAR     39  38  96 W6        30.04R WCI  35
MOUNTAIN HOME  CLEAR     34  34 100 CALM      30.02R
$$

IDZ016-017-231300-
SOUTHCENTRAL IDAHO


CITY           SKY/WX    TMP DP  RH WIND       PRES   REMARKS
BURLEY         PTCLDY    33  31  92 CALM      30.01R
JEROME         MOCLDY    34  34 100 SE3       30.01S
TWIN FALLS     CLOUDY    38  35  89 S9        30.01S WCI  31
$$

IDZ019>023-231300-
SOUTHEAST IDAHO


CITY           SKY/WX    TMP DP  RH WIND       PRES   REMARKS
IDAHO FALLS    CLEAR     32  30  92 CALM      30.03S
POCATELLO      CLOUDY    37  36  96 CALM      30.04R
REXBURG        CLEAR     31  29  92 CALM      30.03S
$$

IDZ006-010-011-018-031-032-231300-
CENTRAL IDAHO MOUNTAINS


CITY           SKY/WX    TMP DP  RH WIND       PRES   REMARKS
MCCALL         CLEAR     30  27  88 CALM      30.01S
HAILEY         CLEAR     32  30  93 N5        30.03R WCI  27
STANLEY          N/A     31  29  92 CALM      30.02S
SALMON         CLOUDY    39  32  76 CALM      30.05R
CHALLIS        CLOUDY    35  34  96 CALM      30.02R
$$

IDZ002-004-006-007-026-231300-
NORTHERN IDAHO


CITY           SKY/WX    TMP DP  RH WIND       PRES   REMARKS
LEWISTON       CLOUDY    47  43  86 E7        30.06S
LOWELL           N/A     44  40  85 N3        30.12R
COEUR D`ALENE  CLOUDY    46  41  82 S8        30.05R
MULLAN PASS    CLOUDY    31  28  89 CALM      30.02S
$$




USA.gov is the U.S. government's official web portal to all federal, state and local government web resources and services.